• In Belarus
  • List of Countries
  • For 7 days
  • Water Temperature
  • Satellite Maps
  • Weather Map
  • Weather Widgets
  • user-avatar
    Login

    Hourly Weather Zawiescice

    Today, 22 February, Friday

    Time Temperature Precipitation Wind Pressure Humidity
    00:00 +6°C° 0.3 mm 5 mps 756 mmHg 92%
    01:00 +6°C° 0 mm 4 mps 757 mmHg 93%
    02:00 +6°C° 0.3 mm 5 mps 757 mmHg 91%
    03:00 +4°C° 0.3 mm 6 mps 758 mmHg 90%
    04:00 +4°C° 0.3 mm 7 mps 758 mmHg 88%
    05:00 +2°C° 0 mm 7 mps 760 mmHg 84%
    06:00 0°C° 0 mm 7 mps 761 mmHg 80%
    07:00 -1°C° 0 mm 5 mps 763 mmHg 76%
    08:00 -1°C° 0 mm 5 mps 764 mmHg 70%
    09:00 -2°C° 0 mm 6 mps 765 mmHg 64%
    10:00 -2°C° 0 mm 6 mps 766 mmHg 58%
    11:00 -2°C° 0 mm 6 mps 767 mmHg 53%
    12:00 -1°C° 0 mm 5 mps 768 mmHg 48%
    13:00 0°C° 0 mm 5 mps 769 mmHg 42%
    14:00 -1°C° 0 mm 5 mps 769 mmHg 42%
    15:00 -1°C° 0 mm 5 mps 769 mmHg 42%
    16:00 -1°C° 0 mm 5 mps 770 mmHg 42%
    17:00 -2°C° 0 mm 4 mps 771 mmHg 45%
    18:00 -3°C° 0 mm 4 mps 771 mmHg 49%
    19:00 -4°C° 0 mm 3 mps 772 mmHg 52%
    20:00 -4°C° 0 mm 3 mps 772 mmHg 52%
    21:00 -4°C° 0 mm 3 mps 773 mmHg 51%
    22:00 -4°C° 0 mm 3 mps 773 mmHg 50%
    23:00 -4°C° 0 mm 3 mps 774 mmHg 49%

    Tomorrow, 23 February, Saturday

    Time Temperature Precipitation Wind Pressure Humidity
    00:00 -3°C° 0 mm 2 mps 774 mmHg 48%
    01:00 -3°C° 0 mm 2 mps 774 mmHg 47%
    02:00 -4°C° 0 mm 2 mps 774 mmHg 47%
    03:00 -4°C° 0 mm 2 mps 774 mmHg 46%
    04:00 -2°C° 0 mm 1 mps 774 mmHg 46%
    05:00 -2°C° 0 mm 1 mps 774 mmHg 45%
    06:00 -2°C° 0 mm 1 mps 774 mmHg 45%
    07:00 -2°C° 0 mm 1 mps 774 mmHg 44%
    08:00 -1°C° 0 mm 1 mps 774 mmHg 40%
    09:00 -2°C° 0 mm 2 mps 774 mmHg 36%
    10:00 -2°C° 0 mm 2 mps 774 mmHg 31%
    11:00 -1°C° 0 mm 2 mps 774 mmHg 29%
    12:00 +1°C° 0 mm 2 mps 774 mmHg 27%
    13:00 +2°C° 0 mm 2 mps 774 mmHg 24%
    14:00 +2°C° 0 mm 2 mps 773 mmHg 26%
    15:00 +3°C° 0 mm 1 mps 773 mmHg 27%
    16:00 +3°C° 0 mm 1 mps 773 mmHg 28%
    17:00 +2°C° 0 mm 1 mps 772 mmHg 31%
    18:00 +1°C° 0 mm 1 mps 772 mmHg 34%
    19:00 -2°C° 0 mm 2 mps 772 mmHg 37%
    20:00 -2°C° 0 mm 2 mps 772 mmHg 38%
    21:00 -2°C° 0 mm 2 mps 772 mmHg 39%
    22:00 -3°C° 0 mm 2 mps 772 mmHg 40%
    23:00 -3°C° 0 mm 2 mps 771 mmHg 40%

    Day after tomorrow, 24 February, Sunday

    Time Temperature Precipitation Wind Pressure Humidity
    00:00 -3°C° 0 mm 2 mps 771 mmHg 40%
    01:00 -3°C° 0 mm 2 mps 771 mmHg 41%
    02:00 0°C° 0 mm 1 mps 771 mmHg 39%
    03:00 0°C° 0 mm 1 mps 771 mmHg 38%
    04:00 0°C° 0 mm 1 mps 770 mmHg 36%
    05:00 0°C° 0 mm 1 mps 770 mmHg 36%
    06:00 +1°C° 0 mm 1 mps 770 mmHg 35%
    07:00 +1°C° 0 mm 1 mps 770 mmHg 34%
    08:00 +1°C° 0 mm 2 mps 770 mmHg 33%
    09:00 +2°C° 0 mm 2 mps 770 mmHg 32%
    10:00 +3°C° 0 mm 2 mps 770 mmHg 31%
    11:00 +4°C° 0 mm 3 mps 770 mmHg 30%
    12:00 +5°C° 0 mm 3 mps 770 mmHg 30%
    13:00 +7°C° 0 mm 3 mps 769 mmHg 30%
    14:00 +7°C° 0 mm 3 mps 769 mmHg 34%
    15:00 +5°C° 0 mm 3 mps 769 mmHg 38%
    16:00 +5°C° 0 mm 3 mps 769 mmHg 42%
    17:00 +4°C° 0 mm 3 mps 769 mmHg 46%
    18:00 +3°C° 0 mm 3 mps 769 mmHg 50%
    19:00 +2°C° 0 mm 3 mps 769 mmHg 54%
    20:00 +1°C° 0 mm 3 mps 769 mmHg 56%
    21:00 +1°C° 0 mm 3 mps 769 mmHg 59%
    22:00 +1°C° 0 mm 3 mps 770 mmHg 61%
    23:00 +1°C° 0 mm 3 mps 770 mmHg 64%

    25 February, Monday

    Time Temperature Precipitation Wind Pressure Humidity
    00:00 0°C° 0 mm 3 mps 770 mmHg 66%
    01:00 0°C° 0 mm 3 mps 770 mmHg 68%
    02:00 0°C° 0 mm 3 mps 770 mmHg 70%
    03:00 0°C° 0 mm 3 mps 769 mmHg 73%
    04:00 -1°C° 0 mm 3 mps 769 mmHg 75%
    05:00 -1°C° 0 mm 3 mps 769 mmHg 77%
    06:00 -1°C° 0 mm 3 mps 769 mmHg 78%
    07:00 -1°C° 0 mm 3 mps 769 mmHg 80%
    08:00 +1°C° 0 mm 3 mps 770 mmHg 76%
    09:00 +2°C° 0 mm 3 mps 770 mmHg 72%
    10:00 +4°C° 0 mm 3 mps 770 mmHg 67%
    11:00 +5°C° 0 mm 3 mps 770 mmHg 66%
    12:00 +7°C° 0 mm 3 mps 770 mmHg 65%
    13:00 +9°C° 0 mm 3 mps 770 mmHg 63%
    14:00 +9°C° 0 mm 3 mps 769 mmHg 64%
    15:00 +9°C° 0 mm 2 mps 769 mmHg 65%
    16:00 +9°C° 0 mm 2 mps 768 mmHg 67%
    17:00 +8°C° 0 mm 2 mps 768 mmHg 72%
    18:00 +7°C° 0 mm 2 mps 768 mmHg 78%
    19:00 +5°C° 0 mm 2 mps 768 mmHg 83%
    20:00 +4°C° 0 mm 3 mps 768 mmHg 84%
    21:00 +4°C° 0 mm 3 mps 768 mmHg 85%
    22:00 +3°C° 0 mm 3 mps 768 mmHg 86%
    23:00 +3°C° 0 mm 3 mps 768 mmHg 83%

    26 February, Tuesday

    Time Temperature Precipitation Wind Pressure Humidity
    00:00 +3°C° 0 mm 3 mps 768 mmHg 80%
    01:00 +1°C° 0 mm 4 mps 767 mmHg 78%
    02:00 +1°C° 0 mm 4 mps 767 mmHg 78%
    03:00 +1°C° 0 mm 4 mps 767 mmHg 78%
    04:00 0°C° 0 mm 4 mps 766 mmHg 78%
    05:00 0°C° 0 mm 4 mps 766 mmHg 79%
    06:00 0°C° 0 mm 4 mps 766 mmHg 79%
    07:00 0°C° 0 mm 4 mps 766 mmHg 80%
    08:00 +1°C° 0 mm 5 mps 766 mmHg 74%
    09:00 +3°C° 0 mm 5 mps 766 mmHg 68%
    10:00 +4°C° 0 mm 6 mps 766 mmHg 61%
    11:00 +7°C° 0 mm 6 mps 765 mmHg 57%
    12:00 +8°C° 0 mm 6 mps 765 mmHg 52%
    13:00 +10°C° 0 mm 6 mps 765 mmHg 47%
    14:00 +10°C° 0 mm 6 mps 764 mmHg 48%
    15:00 +10°C° 0 mm 5 mps 764 mmHg 48%
    16:00 +10°C° 0 mm 5 mps 764 mmHg 49%
    17:00 +8°C° 0 mm 4 mps 764 mmHg 54%
    18:00 +7°C° 0 mm 4 mps 764 mmHg 60%
    19:00 +7°C° 0 mm 3 mps 765 mmHg 66%
    20:00 +5°C° 0 mm 3 mps 765 mmHg 69%
    21:00 +5°C° 0 mm 3 mps 765 mmHg 73%
    22:00 +5°C° 0 mm 2 mps 765 mmHg 76%
    23:00 +5°C° 0 mm 2 mps 765 mmHg 78%

    27 February, Wednesday

    Time Temperature Precipitation Wind Pressure Humidity
    00:00 +4°C° 0 mm 2 mps 765 mmHg 80%
    01:00 +4°C° 0 mm 2 mps 764 mmHg 83%
    02:00 +3°C° 0 mm 2 mps 764 mmHg 85%
    03:00 +3°C° 0 mm 2 mps 764 mmHg 87%
    04:00 +3°C° 0 mm 2 mps 764 mmHg 89%
    05:00 +2°C° 0 mm 2 mps 764 mmHg 90%
    06:00 +2°C° 0 mm 2 mps 763 mmHg 91%
    07:00 +2°C° 0 mm 2 mps 763 mmHg 92%
    08:00 +3°C° 0 mm 3 mps 763 mmHg 85%
    09:00 +4°C° 0 mm 3 mps 763 mmHg 79%
    10:00 +7°C° 0 mm 3 mps 762 mmHg 73%
    11:00 +9°C° 0 mm 3 mps 762 mmHg 68%
    12:00 +10°C° 0 mm 4 mps 761 mmHg 63%
    13:00 +12°C° 0 mm 4 mps 761 mmHg 57%
    14:00 +12°C° 0 mm 4 mps 760 mmHg 57%
    15:00 +12°C° 0 mm 3 mps 759 mmHg 56%
    16:00 +13°C° 0 mm 3 mps 758 mmHg 56%
    17:00 +11°C° 0 mm 3 mps 758 mmHg 61%
    18:00 +10°C° 0 mm 3 mps 758 mmHg 66%
    19:00 +8°C° 0 mm 3 mps 757 mmHg 71%
    20:00 +8°C° 0 mm 3 mps 757 mmHg 72%
    21:00 +8°C° 0 mm 3 mps 756 mmHg 74%
    22:00 +6°C° 0 mm 4 mps 756 mmHg 75%
    23:00 +6°C° 0 mm 4 mps 755 mmHg 77%
    Show more